Regional Weather Roundup
Issued by NWS

Home | Current Version | Previous Version | Text Only | Print | Product List | Glossary Off
Versions: 1 2 3 4 5 6 7 8 9 10 11 12 13 14 15 16 17 18 19 20 21 22 23 24 25 26 27 28 29 30 31 32 33 34 35 36 37 38 39 40 41 42 43 44 45 46 47 48 49 50

082
ASUS43 KBIS 271810
RWRND

NORTH DAKOTA REGIONAL WEATHER ROUNDUP
NATIONAL WEATHER SERVICE BISMARCK ND
100 PM CDT FRI MAY 27 2016

NOTE: "FAIR" INDICATES FEW OR NO CLOUDS BELOW 12,000 FEET WITH NO
SIGNIFICANT WEATHER AND/OR OBSTRUCTIONS TO VISIBILITY.


NDZ001>003-009>011-017-271900-
NORTHWEST NORTH DAKOTA

CITY           SKY/WX    TMP DP  RH WIND       PRES   REMARKS
WILLISTON      CLOUDY    66  50  56 NE8       29.85S
6HR MIN TEMP:  50; 6HR MAX TEMP:  67;

MINOT          CLOUDY    67  54  63 NE10      29.82S
MINOT AFB      PTSUNNY   62  54  76 N10       29.82R
$$

NDZ018>021-031>035-040>046-271900-
SOUTHWEST NORTH DAKOTA

CITY           SKY/WX    TMP DP  RH WIND       PRES   REMARKS
BISMARCK       MOSUNNY   69  50  50 N9        29.83S
6HR MIN TEMP:  50; 6HR MAX TEMP:  70;

DICKINSON      CLOUDY    63  45  51 NE9       29.83S
GARRISON         N/A     63  50  62 N3        29.84R
6HR MIN TEMP:  50; 6HR MAX TEMP:  64;

HETTINGER ARPT PTSUNNY   65  45  48 N6        29.85S
$$

NDZ004>008-012>016-024-026-027-054-271900-
NORTHEAST NORTH DAKOTA

CITY           SKY/WX    TMP DP  RH WIND       PRES   REMARKS
GRAND FORKS    CLOUDY    69  55  60 NW6       29.79F
GRND FRKS AFB  CLOUDY    67  55  64 NW6       29.80F
DEVILS LAKE    CLOUDY    63  53  70 SW8       29.83S
$$

NDZ022-023-025-028>030-036>039-047>053-271900-
SOUTHEAST NORTH DAKOTA

CITY           SKY/WX    TMP DP  RH WIND       PRES   REMARKS
FARGO          PTSUNNY   75  58  55 N10       29.75F
6HR MIN TEMP:  59; 6HR MAX TEMP:  75;

JAMESTOWN      PTSUNNY   66  53  63 NE6       29.80F
$$





USA.gov is the U.S. government's official web portal to all federal, state and local government web resources and services.